1508796000.59,10298,9.56,72986.5,-5.69,-6.97,-6.89,0,*57
1508796001.86,10299,9.56,72984.0,-5.69,-6.97,-6.97,0,*59
1508796003.13,10300,9.56,72986.0,-5.69,-7.01,-7.01,0,*58
1508796004.4,10301,9.56,72980.8,-5.69,-7.01,-7.01,0,*59
1508796005.63,10302,9.63,72974.8,-5.69,-7.11,-7.11,0,*5A
1508796006.86,10303,9.56,72974.5,-5.69,-7.11,-7.11,0,*5B
1508796008.13,10304,9.56,72980.3,-5.69,-7.01,-7.01,0,*5C
1508796009.38,10305,9.56,72970.8,-5.69,-6.89,-6.97,0,*52
1508796010.6,10306,9.56,72964.8,-5.69,-6.89,-6.89,0,*5E
1508796011.87,10307,9.56,72978.5,-5.69,-6.97,-7.01,0,*51
1508796013.12,10308,9.56,72968.5,-5.69,-6.89,-7.01,0,*51
1508796014.39,10309,9.56,72958.5,-5.69,-6.97,-6.97,0,*51
1508796015.64,10310,9.56,72936.8,-5.69,-7.01,-7.11,0,*58
1508796016.9,10311,9.56,72950.5,-5.69,-6.97,-7.11,0,*57
1508796018.17,10312,9.56,72944.5,-5.69,-6.97,-7.01,0,*55
1508796019.42,10313,9.56,72948.8,-5.69,-7.11,-7.01,0,*5B
1508796020.66,10314,9.56,72968.5,-5.69,-6.89,-6.97,0,*52
1508796021.91,10315,9.56,73006.0,-5.71,-7.01,-6.93,0,*5F
1508796023.13,10316,9.56,72968.5,-5.69,-6.85,-6.77,0,*52
1508796024.36,10317,9.56,72940.0,-5.69,-6.85,-6.85,0,*5E
1508796025.57,10318,9.56,72960.8,-5.69,-6.73,-6.73,0,*51
1508796026.77,10319,9.56,72964.3,-5.71,-6.89,-6.89,0,*59
1508796028.0,10320,9.56,72962.5,-5.69,-6.89,-6.85,0,*56
1508796029.22,10321,9.63,72954.5,-5.69,-6.89,-6.89,0,*5B
1508796030.44,10322,9.56,72966.5,-5.69,-6.89,-6.89,0,*58
1508796031.66,10323,9.56,72958.8,-5.69,-6.85,-6.85,0,*59
1508796032.86,10324,9.56,72956.8,-5.71,-6.89,-6.81,0,*5F
1508796034.07,10325,9.56,72976.3,-5.71,-6.89,-6.81,0,*5E
1508796035.29,10326,9.56,72978.3,-5.69,-6.77,-6.77,0,*5C
1508796036.56,10327,9.56,72978.0,-5.69,-6.63,-6.63,0,*5D
1508796037.83,10328,9.56,72974.0,-5.69,-6.63,-6.63,0,*52
1508796039.02,10329,9.56,72992.5,-5.71,-6.69,-6.69,0,*5A
1508796040.24,10330,9.63,72986.5,-5.69,-6.73,-6.85,0,*52
1508796041.44,10331,9.63,72986.0,-5.67,-6.77,-6.73,0,*50
1508796042.66,10332,9.63,72980.8,-5.71,-6.73,-6.63,0,*51
1508796043.88,10333,9.56,72986.8,-5.69,-6.73,-6.73,0,*58
1508796045.09,10334,9.63,72986.5,-5.71,-6.81,-6.81,0,*56
1508796046.32,10335,9.56,72994.0,-5.69,-6.77,-6.73,0,*5A
1508796047.54,10336,9.56,72980.3,-5.69,-6.77,-6.73,0,*59
1508796048.81,10337,9.56,72988.3,-5.69,-6.63,-6.63,0,*5C
1508796050.0,10338,9.63,72994.3,-5.71,-6.69,-6.69,0,*5A
1508796051.25,10339,9.56,72992.8,-5.69,-6.73,-6.63,0,*53
1508796052.47,10340,9.56,72998.5,-5.69,-6.51,-6.51,0,*5C
1508796053.7,10341,9.63,72998.8,-5.69,-6.59,-6.59,0,*5D
1508796054.92,10342,9.56,72996.8,-5.69,-6.59,-6.59,0,*5E
1508796056.15,10343,9.56,72992.8,-5.69,-6.59,-6.59,0,*5F
1508796057.37,10344,9.63,72998.8,-5.69,-6.59,-6.51,0,*50
1508796058.6,10345,9.56,72996.8,-5.69,-6.59,-6.59,0,*59
1508796059.83,10346,9.56,73000.5,-5.69,-6.51,-6.51,0,*5A
1508796061.05,10347,9.56,73002.3,-5.69,-6.59,-6.59,0,*5B
1508796062.28,10348,9.56,73000.5,-5.69,-6.59,-6.51,0,*5C
1508796063.5,10349,9.56,73000.3,-5.65,-6.59,-6.51,0,*51
1508796064.7,10350,9.56,72990.0,-5.67,-6.59,-6.59,0,*53
1508796065.9,10351,9.63,72996.8,-5.67,-6.51,-6.51,0,*52
1508796067.1,10352,9.56,72998.3,-5.67,-6.59,-6.51,0,*59
1508796068.3,10353,9.56,73002.8,-5.67,-6.59,-6.51,0,*58
1508796069.53,10354,9.56,73004.8,-5.69,-6.59,-6.59,0,*59
1508796070.75,10355,9.56,73000.0,-5.67,-6.59,-6.63,0,*5F
1508796071.99,10356,9.56,72998.0,-5.67,-6.63,-6.63,0,*55
1508796073.21,10357,9.56,72996.3,-5.67,-6.73,-6.63,0,*55
1508796074.42,10358,9.56,73002.8,-5.67,-6.63,-6.73,0,*5A
1508796075.62,10359,9.63,72998.0,-5.67,-6.73,-6.73,0,*5A
1508796076.83,10360,9.56,73000.3,-5.69,-6.73,-6.73,0,*5E
1508796078.03,10361,9.63,73002.0,-5.67,-6.73,-6.77,0,*55
1508796079.22,10362,9.56,72986.8,-5.67,-6.85,-6.85,0,*52
1508796080.44,10363,9.56,72984.8,-5.65,-6.85,-6.77,0,*5C
1508796081.64,10364,9.56,72990.8,-5.67,-6.77,-6.73,0,*50
1508796082.86,10365,9.56,72980.5,-5.67,-6.77,-6.63,0,*50
1508796084.08,10366,9.56,72988.3,-5.67,-6.63,-6.73,0,*57
1508796085.27,10367,9.56,72986.3,-5.67,-6.73,-6.73,0,*57
1508796086.48,10368,9.63,72996.0,-5.67,-6.63,-6.73,0,*59
1508796087.68,10369,9.63,72986.8,-5.67,-6.73,-6.73,0,*59
1508796088.92,10370,9.56,72976.5,-5.65,-6.73,-6.63,0,*52
1508796090.14,10371,9.56,72978.8,-5.65,-6.77,-6.73,0,*56
1508796091.39,10372,9.56,72986.5,-5.69,-6.73,-6.63,0,*5C
1508796092.63,10373,9.63,72984.3,-5.67,-6.63,-6.63,0,*52
1508796093.85,10374,9.56,72980.8,-5.69,-6.73,-6.73,0,*5B
1508796095.07,10375,9.56,72976.5,-5.69,-6.73,-6.73,0,*5A
1508796096.26,10376,9.56,72980.8,-5.67,-6.73,-6.73,0,*57
1508796097.5,10377,9.56,72980.5,-5.67,-6.63,-6.63,0,*56
1508796098.7,10378,9.56,72982.5,-5.67,-6.73,-6.73,0,*59
1508796099.92,10379,9.56,72990.0,-5.67,-6.73,-6.63,0,*59
1508796101.14,10380,9.56,72980.5,-5.65,-6.59,-6.59,0,*5C
1508796102.36,10381,9.56,72980.0,-5.67,-6.63,-6.73,0,*5E
1508796103.57,10382,9.56,72982.3,-5.67,-6.63,-6.73,0,*5D
1508796104.79,10383,9.56,72994.5,-5.65,-6.77,-6.73,0,*5B
1508796106.01,10384,9.56,72994.8,-5.67,-6.73,-6.63,0,*5B
1508796107.2,10385,9.56,72996.3,-5.67,-6.73,-6.73,0,*5B
1508796108.4,10386,9.56,73000.5,-5.67,-6.73,-6.73,0,*58
1508796109.59,10387,9.56,72998.5,-5.67,-6.73,-6.73,0,*59
1508796110.78,10388,9.56,72992.3,-5.67,-6.73,-6.73,0,*56
1508796112.02,10389,9.63,73010.5,-5.67,-6.63,-6.63,0,*57
1508796113.24,10390,9.56,73010.0,-5.67,-6.73,-6.63,0,*5E
1508796114.47,10391,9.63,73004.0,-5.65,-6.77,-6.73,0,*58
1508796115.66,10392,9.56,73006.0,-5.67,-6.85,-6.73,0,*54
1508796116.88,10393,9.56,73004.0,-5.65,-6.77,-6.77,0,*5E
1508796118.12,10394,9.56,73004.0,-5.67,-6.63,-6.63,0,*5B
1508796119.36,10395,9.56,73006.5,-5.65,-6.63,-6.73,0,*59
1508796120.6,10396,9.63,72998.8,-5.67,-6.63,-6.63,0,*59
1508796121.82,10397,9.56,72998.8,-5.67,-6.63,-6.59,0,*51
1508796123.02,10398,9.56,73004.3,-5.67,-6.51,-6.59,0,*5F
1508796124.25,10399,9.56,73008.8,-5.65,-6.59,-6.59,0,*54
1508796125.44,10400,9.56,73008.8,-5.67,-6.59,-6.59,0,*51
1508796126.66,10401,9.56,72998.5,-5.67,-6.73,-6.63,0,*51
1508796127.88,10402,9.63,72994.3,-5.67,-6.63,-6.73,0,*52
1508796129.1,10403,9.56,72996.8,-5.65,-6.73,-6.77,0,*54
1508796130.29,10404,9.56,72998.5,-5.67,-6.73,-6.73,0,*55
1508796131.48,10405,9.56,72994.5,-5.67,-6.73,-6.73,0,*54
1508796132.7,10406,9.63,73004.8,-5.67,-6.73,-6.63,0,*56
1508796133.9,10407,9.56,73006.8,-5.67,-6.73,-6.77,0,*52
1508796135.09,10408,9.56,73006.8,-5.67,-6.73,-6.73,0,*59
1508796136.28,10409,9.56,72988.0,-5.67,-6.73,-6.77,0,*5C
1508796137.5,10410,9.56,72990.3,-5.65,-6.73,-6.77,0,*56
1508796138.7,10411,9.56,72986.8,-5.67,-6.85,-6.89,0,*5D
1508796139.89,10412,9.56,72986.8,-5.67,-6.85,-6.89,0,*5E
1508796141.09,10413,9.56,72994.5,-5.67,-6.85,-6.85,0,*53
1508796142.28,10414,9.56,72988.8,-5.67,-6.85,-6.85,0,*54
1508796143.47,10415,9.56,72988.0,-5.67,-6.85,-6.77,0,*58
1508796144.7,10416,9.56,72994.5,-5.65,-6.77,-6.77,0,*54
1508796145.91,10417,9.56,72982.0,-5.67,-6.63,-6.73,0,*56
1508796147.1,10418,9.63,72976.5,-5.67,-6.73,-6.73,0,*58
1508796148.32,10419,9.56,72978.8,-5.65,-6.85,-6.77,0,*56
1508796149.52,10420,9.56,72978.0,-5.67,-6.85,-6.85,0,*53
1508796150.71,10421,9.56,72978.0,-5.67,-6.85,-6.85,0,*52
1508796151.9,10422,9.56,72968.3,-5.67,-6.85,-6.85,0,*51
1508796153.1,10423,9.56,72986.0,-5.67,-6.85,-6.77,0,*5D
1508796154.29,10424,9.63,72984.5,-5.67,-6.77,-6.85,0,*5A
1508796155.49,10425,9.56,72974.3,-5.67,-6.85,-6.85,0,*56
1508796156.71,10426,9.56,72984.5,-5.65,-6.85,-6.77,0,*5A
1508796157.9,10427,9.56,72978.5,-5.67,-6.85,-6.85,0,*54
1508796159.1,10428,9.56,72978.0,-5.67,-6.77,-6.85,0,*56
1508796160.3,10429,9.56,72986.5,-5.67,-6.77,-6.85,0,*57
1508796161.49,10430,9.56,72996.0,-5.67,-6.85,-6.77,0,*5F
1508796162.73,10431,9.56,72980.0,-5.67,-6.63,-6.63,0,*53
1508796163.95,10432,9.56,72980.3,-5.65,-6.73,-6.73,0,*52
1508796165.15,10433,9.56,72978.8,-5.67,-6.77,-6.77,0,*51
1508796166.37,10434,9.56,72986.3,-5.67,-6.73,-6.63,0,*57
1508796167.59,10435,9.56,72982.3,-5.67,-6.73,-6.63,0,*56
1508796168.81,10436,9.56,72984.0,-5.67,-6.73,-6.63,0,*55
1508796170.03,10437,9.56,72994.5,-5.67,-6.73,-6.63,0,*54
1508796171.29,10438,9.56,72984.8,-5.65,-6.63,-6.63,0,*58
1508796172.54,10439,9.56,72998.0,-5.65,-6.77,-6.63,0,*5C
1508796173.76,10440,9.56,72992.3,-5.67,-6.63,-6.73,0,*54
1508796175.0,10441,9.56,72998.5,-5.69,-6.73,-6.63,0,*5B
1508796176.22,10442,9.56,73010.3,-5.65,-6.73,-6.73,0,*55
1508796177.44,10443,9.56,72998.5,-5.69,-6.73,-6.73,0,*58
1508796178.63,10444,9.56,72994.5,-5.67,-6.85,-6.73,0,*58
1508796179.85,10445,9.56,72998.5,-5.67,-6.73,-6.63,0,*51
1508796181.05,10446,9.56,72992.8,-5.67,-6.73,-6.73,0,*53
1508796182.24,10447,9.56,73002.8,-5.67,-6.73,-6.73,0,*52
1508796183.46,10448,9.56,73006.5,-5.67,-6.73,-6.63,0,*5C
1508796184.65,10449,9.56,73002.5,-5.67,-6.73,-6.73,0,*5C
1508796185.87,10450,9.56,72998.3,-5.67,-6.73,-6.63,0,*55
1508796187.14,10451,9.56,73006.5,-5.65,-6.63,-6.63,0,*57
1508796188.36,10452,9.56,73002.0,-5.67,-6.73,-6.63,0,*57
1508796189.6,10453,9.56,72996.3,-5.65,-6.63,-6.77,0,*50
1508796190.82,10454,9.56,72984.3,-5.65,-6.73,-6.77,0,*56
1508796192.02,10455,9.56,72982.8,-5.67,-6.77,-6.77,0,*51
1508796193.21,10456,9.56,72992.0,-5.67,-6.73,-6.85,0,*5B
1508796194.4,10457,9.56,73002.3,-5.67,-6.85,-6.89,0,*5F
1508796195.65,10458,9.56,72986.5,-5.67,-6.97,-6.97,0,*5C
1508796196.87,10459,9.56,72982.5,-5.65,-6.85,-6.77,0,*52
1508796198.06,10460,9.56,72984.8,-5.67,-6.85,-6.85,0,*57
1508796199.26,10461,9.56,72984.8,-5.67,-6.89,-6.85,0,*5A
1508796200.48,10462,9.56,72992.8,-5.65,-6.77,-6.85,0,*5A
1508796201.68,10463,9.56,73002.3,-5.67,-6.89,-6.85,0,*58
1508796202.87,10464,9.56,72996.5,-5.67,-6.85,-6.77,0,*5E
1508796204.06,10465,9.56,72978.5,-5.67,-6.85,-6.77,0,*5F
1508796205.26,10466,9.56,72974.0,-5.67,-6.89,-6.77,0,*50
1508796206.46,10467,9.56,72988.0,-5.67,-6.77,-6.77,0,*50
1508796207.68,10468,9.56,72992.5,-5.65,-6.85,-6.85,0,*5D
1508796208.9,10469,9.56,73002.3,-5.65,-6.77,-6.85,0,*51
1508796210.15,10470,9.56,73006.5,-5.67,-6.97,-6.97,0,*56
1508796211.37,10471,9.56,72994.3,-5.67,-6.97,-6.85,0,*54
1508796212.59,10472,9.56,72988.0,-5.67,-6.97,-6.85,0,*57
1508796213.78,10473,9.56,72988.5,-5.67,-6.85,-6.77,0,*58
1508796215.01,10474,9.63,72990.3,-5.65,-6.77,-6.85,0,*5D
1508796216.2,10475,9.56,72982.5,-5.67,-6.89,-6.77,0,*52
1508796217.39,10476,9.56,72984.3,-5.67,-6.89,-6.85,0,*5C
1508796218.59,10477,9.56,72976.3,-5.67,-6.89,-6.85,0,*5D
1508796219.78,10478,9.56,72968.8,-5.67,-6.85,-6.85,0,*5E
1508796221.0,10479,9.56,72988.3,-5.67,-6.97,-6.85,0,*5C
1508796222.2,10480,9.56,72986.0,-5.67,-6.89,-6.77,0,*58
1508796223.42,10481,9.56,72980.0,-5.67,-6.97,-6.89,0,*57
1508796224.64,10482,9.56,72972.5,-5.67,-6.97,-6.85,0,*58
1508796225.84,10483,9.56,72954.8,-5.67,-6.77,-6.77,0,*5A
1508796227.04,10484,9.56,72968.5,-5.67,-6.77,-6.77,0,*5D
1508796228.28,10485,9.56,72964.0,-5.67,-6.63,-6.63,0,*5C
1508796229.47,10486,9.56,72960.3,-5.67,-6.89,-6.85,0,*53
1508796230.69,10487,9.56,72960.3,-5.67,-6.89,-6.97,0,*51
1508796231.88,10488,9.56,72962.0,-5.67,-6.85,-6.77,0,*5C
1508796233.08,10489,9.56,72952.8,-5.67,-6.85,-6.85,0,*50
1508796234.27,10490,9.56,72958.3,-5.67,-6.89,-6.85,0,*54
1508796235.47,10491,9.56,72974.8,-5.67,-6.89,-6.85,0,*55
1508796236.66,10492,9.56,72974.5,-5.67,-6.85,-6.77,0,*57
1508796237.85,10493,9.56,72956.5,-5.67,-6.89,-6.89,0,*5B
1508796239.05,10494,9.56,72964.5,-5.67,-6.89,-6.89,0,*5C
1508796240.27,10495,9.56,72976.0,-5.69,-6.85,-6.85,0,*53
1508796241.49,10496,9.56,72968.0,-5.69,-6.89,-6.89,0,*50
1508796242.71,10497,9.56,72980.8,-5.65,-6.89,-6.89,0,*5D
1508796243.93,10498,9.56,72980.3,-5.69,-6.89,-6.85,0,*52
1508796245.18,10499,9.56,72988.0,-5.69,-6.97,-6.85,0,*5C
1508796246.45,10500,9.56,72990.0,-5.69,-6.97,-6.97,0,*5E
1508796247.67,10501,9.56,72990.3,-5.69,-6.89,-6.89,0,*5F
1508796248.93,10502,9.56,72982.3,-5.69,-6.97,-7.11,0,*53
1508796250.17,10503,9.56,72994.5,-5.69,-7.01,-6.89,0,*5C
1508796251.42,10504,9.56,72982.3,-5.69,-6.97,-6.89,0,*55
1508796252.67,10505,9.56,72986.8,-5.69,-7.01,-6.89,0,*5A
1508796253.91,10506,9.56,72986.8,-5.69,-6.89,-6.97,0,*57
1508796255.16,10507,9.56,72980.5,-5.69,-6.97,-6.89,0,*56
1508796256.42,10508,9.56,72976.3,-5.69,-6.97,-7.11,0,*59
1508796257.67,10509,9.56,72986.5,-5.69,-7.01,-7.11,0,*56
1508796258.9,10510,9.56,72982.5,-5.69,-7.11,-7.11,0,*5F
1508796260.12,10511,9.56,72982.0,-5.69,-7.15,-7.11,0,*5A
1508796261.4,10512,9.56,72996.0,-5.69,-6.97,-6.97,0,*5D
1508796262.62,10513,9.56,72990.0,-5.71,-7.15,-7.05,0,*54
1508796263.86,10514,9.56,72988.8,-5.71,-7.05,-7.05,0,*52
1508796265.14,10515,9.56,72974.5,-5.69,-6.97,-6.97,0,*5A
1508796266.41,10516,9.56,72984.0,-5.69,-6.97,-7.01,0,*57
1508796267.64,10517,9.56,72994.8,-5.71,-6.93,-6.89,0,*5A
1508796268.84,10518,9.56,72986.0,-5.71,-6.89,-6.89,0,*5E
1508796270.06,10519,9.56,72992.5,-5.69,-6.89,-6.89,0,*56
1508796271.28,10520,9.56,72988.3,-5.69,-6.89,-6.85,0,*50
1508796272.55,10521,9.56,72970.3,-5.69,-6.97,-6.97,0,*5D
1508796273.8,10522,9.56,72964.3,-5.69,-6.97,-6.89,0,*51
1508796275.05,10523,9.56,72980.8,-5.69,-6.97,-6.89,0,*50
1508796276.29,10524,9.56,72986.3,-5.69,-6.89,-6.97,0,*57
1508796277.52,10525,9.56,72994.5,-5.69,-6.89,-6.89,0,*59
1508796278.74,10526,9.56,72996.3,-5.69,-6.89,-6.89,0,*5A
1508796279.96,10527,9.63,72998.8,-5.69,-6.89,-6.77,0,*5A
1508796281.21,10528,9.56,72988.5,-5.69,-6.97,-6.89,0,*5B
1508796282.43,10529,9.56,72996.3,-5.69,-6.85,-6.89,0,*59
1508796283.7,10530,9.56,72984.3,-5.69,-6.97,-6.97,0,*5D
1508796284.97,10531,9.56,72972.5,-5.69,-6.97,-6.97,0,*5C
1508796286.22,10532,9.56,72980.3,-5.69,-6.89,-6.97,0,*50
1508796287.44,10533,9.56,72984.8,-5.69,-6.89,-6.89,0,*5E
1508796288.66,10534,9.56,72974.8,-5.69,-6.89,-6.89,0,*59
1508796289.86,10535,9.56,72986.5,-5.67,-6.77,-6.85,0,*5B
1508796291.05,10536,9.56,73000.5,-5.67,-6.77,-6.77,0,*55
1508796292.25,10537,9.56,72990.0,-5.67,-6.85,-6.77,0,*59
1508796293.44,10538,9.56,72994.3,-5.67,-6.85,-6.77,0,*56
1508796294.64,10539,9.56,73000.3,-5.67,-6.85,-6.77,0,*57
1508796295.83,10540,9.56,72984.5,-5.67,-6.85,-6.85,0,*54
1508796297.03,10541,9.56,72992.5,-5.67,-6.77,-6.85,0,*58
1508796298.22,10542,9.56,72992.8,-5.67,-6.85,-6.85,0,*56
1508796299.42,10543,9.56,73014.8,-5.67,-6.77,-6.77,0,*57
1508796300.62,10544,9.56,73008.8,-5.67,-6.77,-6.73,0,*54
1508796301.83,10545,9.56,72984.5,-5.67,-6.85,-6.97,0,*52
1508796303.05,10546,9.56,72982.8,-5.69,-6.85,-6.85,0,*5C
1508796304.27,10547,9.56,72994.5,-5.69,-6.85,-6.89,0,*51
1508796305.47,10548,9.56,73022.5,-5.67,-6.77,-6.73,0,*58
1508796306.69,10549,9.56,72990.5,-5.69,-6.89,-6.85,0,*5F
1508796307.91,10550,9.56,72994.3,-5.69,-6.89,-6.85,0,*57
1508796309.14,10551,9.56,72982.3,-5.69,-6.77,-6.77,0,*5A
1508796310.36,10552,9.56,72998.3,-5.69,-6.77,-6.73,0,*5D
1508796311.58,10553,9.56,72978.0,-5.69,-6.77,-6.73,0,*5C
1508796312.81,10554,9.56,72978.5,-5.65,-6.77,-6.77,0,*53
1508796314.0,10555,9.56,72980.3,-5.67,-6.77,-6.77,0,*50
1508796315.2,10556,9.56,72976.5,-5.67,-6.85,-6.85,0,*53
1508796316.42,10557,9.56,72974.0,-5.65,-6.85,-6.85,0,*50
1508796317.64,10558,9.56,72974.5,-5.69,-6.77,-6.77,0,*53
1508796318.86,10559,9.56,72974.8,-5.69,-6.85,-6.85,0,*52
1508796320.08,10560,9.56,72980.8,-5.69,-6.89,-6.77,0,*59
1508796321.27,10561,9.56,72980.3,-5.67,-6.85,-6.85,0,*57
1508796322.47,10562,9.56,72986.8,-5.67,-6.85,-6.77,0,*59
1508796323.69,10563,9.56,72992.3,-5.67,-6.77,-6.63,0,*50
1508796324.89,10564,9.56,73000.0,-5.67,-6.77,-6.77,0,*52
1508796326.11,10565,9.56,72994.0,-5.69,-6.89,-6.85,0,*51
1508796327.33,10566,9.56,72998.0,-5.69,-6.89,-6.89,0,*5E
1508796328.58,10567,9.56,72986.8,-5.69,-6.89,-6.97,0,*50
1508796329.81,10568,9.56,72988.8,-5.69,-7.11,-7.11,0,*50
1508796331.08,10569,9.56,72998.5,-5.69,-7.01,-7.01,0,*51
1508796332.27,10570,9.56,72992.8,-5.67,-6.89,-6.89,0,*57
1508796333.55,10571,9.56,73006.5,-5.69,-6.97,-6.97,0,*58
1508796334.82,10572,9.56,72994.5,-5.69,-6.97,-6.97,0,*5B
1508796336.04,10573,9.56,72996.5,-5.69,-6.89,-6.89,0,*5A
1508796337.26,10574,9.56,73010.0,-5.69,-6.77,-6.85,0,*50
1508796338.48,10575,9.56,72980.0,-5.69,-6.85,-6.89,0,*50
1508796339.7,10576,9.56,72982.0,-5.67,-6.89,-6.97,0,*5E
1508796340.95,10577,9.56,72994.8,-5.67,-6.97,-6.97,0,*50
1508796342.17,10578,9.56,72994.0,-5.67,-6.89,-6.97,0,*50
1508796343.42,10579,9.56,72970.8,-5.67,-6.97,-6.97,0,*5E
1508796344.66,10580,9.56,72978.5,-5.67,-7.01,-7.01,0,*58
1508796345.88,10581,9.56,72980.5,-5.67,-6.89,-7.01,0,*58
1508796347.13,10582,9.56,72968.3,-5.69,-7.11,-6.97,0,*5B
1508796348.35,10583,9.56,72980.0,-5.69,-6.85,-6.89,0,*59
1508796349.59,10584,9.56,72962.5,-5.69,-6.89,-6.97,0,*5D
1508796350.84,10585,9.56,72972.3,-5.69,-6.97,-6.89,0,*5C
1508796352.06,10586,9.56,72978.8,-5.67,-6.97,-6.89,0,*51
1508796353.29,10587,9.56,72978.0,-5.67,-6.97,-6.89,0,*50
1508796354.48,10588,9.56,72970.5,-5.67,-6.85,-6.85,0,*50
1508796355.7,10589,9.56,72974.8,-5.69,-6.85,-6.85,0,*5F
1508796356.92,10590,9.56,72970.8,-5.69,-6.85,-6.85,0,*57
1508796358.11,10591,9.56,72972.8,-5.67,-6.89,-6.89,0,*58
1508796359.31,10592,9.56,72984.8,-5.67,-6.89,-6.89,0,*5B
1508796360.56,10593,9.56,73008.8,-5.69,-6.97,-6.85,0,*57
1508796361.75,10594,9.56,72988.3,-5.67,-6.77,-6.85,0,*50
1508796362.95,10595,9.56,72974.0,-5.67,-6.85,-6.89,0,*50
1508796364.17,10596,9.56,72972.0,-5.69,-6.89,-6.89,0,*51
1508796365.39,10597,9.56,72988.8,-5.69,-6.89,-6.85,0,*5C
1508796366.61,10598,9.56,72998.8,-5.67,-6.97,-6.77,0,*5F
1508796367.81,10599,9.56,73000.3,-5.67,-6.85,-6.85,0,*50
1508796369.03,10600,9.56,73004.3,-5.65,-6.77,-6.77,0,*51
1508796370.23,10601,9.56,72998.3,-5.67,-6.77,-6.77,0,*52
1508796371.42,10602,9.56,72986.3,-5.67,-6.89,-6.85,0,*5D
1508796372.61,10603,9.56,72998.0,-5.67,-6.85,-6.85,0,*50
1508796373.81,10604,9.56,73004.0,-5.67,-6.89,-6.85,0,*5B
1508796375.0,10605,9.56,72996.8,-5.67,-6.85,-6.77,0,*5B
1508796376.25,10606,9.56,73000.5,-5.69,-6.97,-6.85,0,*58
1508796377.47,10607,9.56,72984.5,-5.67,-6.97,-6.89,0,*5B
1508796378.69,10608,9.56,72982.5,-5.67,-6.97,-6.85,0,*58
1508796379.89,10609,9.56,72980.0,-5.67,-6.77,-6.77,0,*5A
1508796381.09,10610,9.56,72992.0,-5.67,-6.77,-6.73,0,*56
1508796382.28,10611,9.56,72982.0,-5.67,-6.73,-6.59,0,*5B
1508796383.53,10612,9.56,72974.3,-5.69,-6.63,-6.59,0,*57
1508796384.77,10613,9.56,72996.5,-5.69,-6.63,-6.51,0,*5E
1508796385.97,10614,9.56,73006.0,-5.67,-6.51,-6.51,0,*56
1508796387.17,10615,9.56,72996.3,-5.67,-6.51,-6.51,0,*57
1508796388.37,10616,9.56,73002.0,-5.67,-6.59,-6.51,0,*5C
1508796389.58,10617,9.56,73006.8,-5.67,-6.51,-6.51,0,*55
1508796390.82,10618,9.56,72992.5,-5.67,-6.63,-6.63,0,*5A
1508796392.06,10619,9.56,72992.5,-5.69,-6.63,-6.59,0,*5C
1508796393.28,10620,9.56,72990.8,-5.67,-6.63,-6.59,0,*58
1508796394.5,10621,9.56,72994.5,-5.67,-6.73,-6.63,0,*51
1508796395.72,10622,9.56,72994.8,-5.67,-6.73,-6.63,0,*52
1508796396.94,10623,9.56,72994.5,-5.67,-6.73,-6.63,0,*53
1508796398.13,10624,9.56,73000.3,-5.67,-6.73,-6.73,0,*55
1508796399.35,10625,9.56,72994.3,-5.65,-6.85,-6.85,0,*56
1508796400.57,10626,9.56,72998.8,-5.65,-6.85,-6.85,0,*55
1508796401.76,10627,9.56,72994.8,-5.67,-6.85,-6.85,0,*56
1508796402.96,10628,9.56,72992.8,-5.67,-6.85,-6.77,0,*54
1508796404.15,10629,9.56,73002.8,-5.67,-6.77,-6.73,0,*5C
1508796405.35,10630,9.56,73000.8,-5.67,-6.85,-6.73,0,*59
1508796406.54,10631,9.56,73008.3,-5.67,-6.77,-6.73,0,*55
1508796407.74,10632,9.56,73008.8,-5.67,-6.85,-6.77,0,*5F
1508796408.96,10633,9.56,73002.0,-5.65,-6.85,-6.77,0,*5C
1508796410.15,10634,9.56,73002.3,-5.67,-6.77,-6.73,0,*50
1508796411.35,10635,9.56,73010.0,-5.67,-6.77,-6.73,0,*51
1508796412.54,10636,9.56,73010.5,-5.67,-6.73,-6.73,0,*56
1508796413.74,10637,9.56,73012.5,-5.67,-6.85,-6.73,0,*5E
1508796414.93,10638,9.56,73016.0,-5.67,-6.85,-6.77,0,*55
1508796416.15,10639,9.56,72988.3,-5.65,-6.77,-6.77,0,*5B
1508796417.35,10640,9.56,73002.0,-5.67,-6.77,-6.77,0,*57
1508796418.57,10641,9.56,73004.5,-5.67,-6.73,-6.63,0,*57
1508796419.79,10642,9.56,73012.3,-5.67,-6.63,-6.59,0,*5C
1508796420.98,10643,9.56,73004.3,-5.67,-6.73,-6.73,0,*54
1508796422.17,10644,9.56,73006.3,-5.67,-6.73,-6.73,0,*53
1508796423.37,10645,9.56,72996.3,-5.67,-6.85,-6.77,0,*5F
1508796424.56,10646,9.56,73004.3,-5.67,-6.89,-6.85,0,*5D
1508796425.76,10647,9.56,73016.8,-5.67,-6.89,-6.89,0,*50
1508796426.95,10648,9.56,73004.5,-5.67,-6.85,-6.77,0,*52
1508796428.15,10649,9.56,72994.5,-5.67,-6.77,-6.77,0,*5E
1508796429.34,10650,9.56,72990.5,-5.67,-6.85,-6.85,0,*56
1508796430.56,10651,9.56,73002.5,-5.67,-6.97,-6.89,0,*58
1508796431.79,10652,9.56,73004.5,-5.65,-6.77,-6.77,0,*56
1508796432.98,10653,9.56,73002.8,-5.67,-6.77,-6.73,0,*51
1508796434.18,10654,9.56,73002.0,-5.67,-6.85,-6.77,0,*5F
1508796435.38,10655,9.56,73008.5,-5.63,-6.73,-6.73,0,*57
1508796436.57,10656,9.56,73004.8,-5.67,-6.85,-6.77,0,*5D
1508796437.76,10657,9.56,72988.3,-5.67,-6.85,-6.77,0,*5C
1508796438.96,10658,9.56,72998.8,-5.67,-6.89,-6.85,0,*52
1508796440.18,10659,9.56,72982.8,-5.65,-6.85,-6.77,0,*50
1508796441.4,10660,9.56,72984.0,-5.65,-6.77,-6.77,0,*57
1508796442.6,10661,9.56,72982.5,-5.67,-6.85,-6.73,0,*5D
1508796443.79,10662,9.56,73002.8,-5.67,-6.89,-6.77,0,*56
1508796445.01,10663,9.56,73006.5,-5.65,-6.89,-6.85,0,*58
1508796446.26,10664,9.56,72976.0,-5.65,-6.97,-6.89,0,*5C
1508796447.45,10665,9.56,73004.5,-5.67,-6.89,-6.85,0,*5C
1508796448.67,10666,9.56,73018.3,-5.65,-6.73,-6.77,0,*55
1508796449.89,10667,9.56,73018.8,-5.67,-6.73,-6.63,0,*53
1508796451.08,10668,9.56,72992.3,-5.67,-6.73,-6.73,0,*5D
1508796452.3,10669,9.56,73000.8,-5.65,-6.85,-6.73,0,*57
1508796453.52,10670,9.56,73010.0,-5.65,-6.85,-6.89,0,*5A
1508796454.72,10671,9.56,72994.8,-5.67,-6.89,-6.77,0,*54
1508796455.94,10672,9.56,72980.8,-5.65,-6.85,-6.85,0,*54
1508796457.16,10673,9.56,73000.0,-5.65,-6.77,-6.77,0,*55
1508796458.36,10674,9.56,73008.0,-5.67,-6.77,-6.77,0,*50
1508796459.58,10675,9.56,73022.5,-5.69,-6.77,-6.73,0,*5B
1508796460.78,10676,9.56,72988.5,-5.67,-6.85,-6.85,0,*52
1508796462.02,10677,9.56,72992.3,-5.67,-6.63,-6.63,0,*53
1508796463.26,10678,9.56,72978.5,-5.67,-6.63,-6.63,0,*5C
1508796464.45,10679,9.56,72984.5,-5.67,-6.59,-6.59,0,*5D
1508796465.7,10680,9.56,72992.3,-5.65,-6.73,-6.63,0,*58
1508796466.94,10681,9.56,72996.5,-5.67,-6.63,-6.63,0,*5A
1508796468.21,10682,9.56,73000.0,-5.65,-6.63,-6.63,0,*5B
1508796469.42,10683,9.56,72998.3,-5.67,-6.63,-6.51,0,*59
1508796470.63,10684,9.56,73000.3,-5.67,-6.51,-6.51,0,*5F
1508796471.84,10685,9.56,73010.0,-5.67,-6.63,-6.59,0,*57
1508796473.04,10686,9.56,73002.8,-5.67,-6.59,-6.51,0,*55
1508796474.24,10687,9.56,73004.0,-5.67,-6.51,-6.51,0,*5C
1508796475.45,10688,9.56,73006.0,-5.67,-6.51,-6.51,0,*53
1508796476.65,10689,9.56,72992.3,-5.67,-6.51,-6.59,0,*5A
1508796477.87,10690,9.56,73014.5,-5.65,-6.59,-6.51,0,*50
1508796479.07,10691,9.56,73002.0,-5.67,-6.51,-6.51,0,*5B
1508796480.3,10692,9.56,73018.0,-5.65,-6.51,-6.51,0,*5A
1508796481.5,10693,9.56,73014.0,-5.67,-6.51,-6.51,0,*59
1508796482.7,10694,9.56,73016.8,-5.67,-6.59,-6.59,0,*5E
1508796483.93,10695,9.56,73020.8,-5.65,-6.59,-6.51,0,*55
1508796485.13,10696,9.56,73010.8,-5.67,-6.59,-6.59,0,*5C
1508796486.37,10697,9.56,73022.0,-5.67,-6.63,-6.63,0,*5D
1508796487.59,10698,9.56,73020.3,-5.65,-6.51,-6.51,0,*50
1508796488.79,10699,9.56,73020.3,-5.67,-6.59,-6.51,0,*5B
1508796490.01,10700,9.56,73016.5,-5.67,-6.73,-6.63,0,*53
1508796491.25,10701,9.56,73026.5,-5.67,-6.63,-6.63,0,*53
1508796492.49,10702,9.56,73020.0,-5.67,-6.63,-6.63,0,*50
1508796493.69,10703,9.56,73026.8,-5.67,-6.59,-6.73,0,*59
1508796494.92,10704,9.56,73020.3,-5.65,-6.51,-6.59,0,*5C
1508796496.14,10705,9.56,73016.0,-5.65,-6.59,-6.59,0,*55
1508796497.37,10706,9.56,73018.0,-5.65,-6.51,-6.59,0,*5E
1508796498.57,10707,9.56,73016.8,-5.67,-6.59,-6.59,0,*55
1508796499.79,10708,9.56,73014.3,-5.65,-6.59,-6.51,0,*50
1508796501.03,10709,9.56,73004.3,-5.65,-6.63,-6.73,0,*58
1508796502.25,10710,9.56,73010.3,-5.67,-6.73,-6.63,0,*52
1508796503.45,10711,9.56,73016.5,-5.67,-6.73,-6.59,0,*5A
1508796504.71,10712,9.56,73018.0,-5.65,-6.63,-6.63,0,*53
1508796505.96,10713,9.56,73000.0,-5.65,-6.73,-6.63,0,*53
1508796507.18,10714,9.56,73010.3,-5.65,-6.73,-6.73,0,*55
1508796508.37,10715,9.56,73008.0,-5.67,-6.77,-6.77,0,*56
1508796509.6,10716,9.56,73000.8,-5.65,-6.77,-6.89,0,*56
1508796510.8,10717,9.56,73008.3,-5.67,-6.77,-6.77,0,*54
1508796512.02,10718,9.56,73000.3,-5.65,-6.85,-6.77,0,*54
1508796513.24,10719,9.56,73004.8,-5.65,-6.77,-6.77,0,*58